This is the latest recevied weather packets stored in our database for station/object WP3OF-2. If no packets are shown the sender has not sent any weather packets the latest 10 day(s).
| Time | Temp. | Humidity | Pressure | Rain* | Wind** | Luminosity | Snow |
|---|---|---|---|---|---|---|---|
| 1777716859 | 20° C | 76% | 1024.5 hPa | 0 mm | - | 12 W/m² | - |
| 1777716557 | 19.44° C | 77% | 1024.5 hPa | 0 mm | - | 8 W/m² | - |
| 1777716256 | 18.89° C | 82% | 1024.5 hPa | 0 mm | - | 4 W/m² | - |
| 1777715953 | 18.89° C | 83% | 1024.5 hPa | 0 mm | - | 2 W/m² | - |
| 1777715650 | 18.89° C | 85% | 1024.5 hPa | 0 mm | - | 0 W/m² | - |
| 1777715348 | 18.89° C | 84% | 1024.1 hPa | 0 mm | - | 0 W/m² | - |
| 1777715045 | 18.89° C | 85% | 1024.5 hPa | 0 mm | - | 0 W/m² | - |
| 1777714743 | 18.89° C | 85% | 1024.5 hPa | 0 mm | - | 0 W/m² | - |
| 1777714441 | 18.89° C | 85% | 1024.1 hPa | 0 mm | - | 0 W/m² | - |
| 1777714139 | 18.89° C | 86% | 1024.1 hPa | 0 mm | - | 0 W/m² | - |
| 1777713836 | 18.89° C | 85% | 1024.1 hPa | 0 mm | - | 0 W/m² | - |
| 1777713534 | 18.89° C | 85% | 1024.1 hPa | 0 mm | - | 0 W/m² | - |
| 1777713229 | 18.89° C | 84% | 1023.7 hPa | 0 mm | - | 0 W/m² | - |
| 1777712927 | 18.89° C | 84% | 1023.7 hPa | 0 mm | - | 0 W/m² | - |
| 1777712624 | 18.89° C | 84% | 1023.7 hPa | 0 mm | - | 0 W/m² | - |
| 1777712321 | 18.89° C | 84% | 1023.7 hPa | 0 mm | - | 0 W/m² | - |
| 1777712017 | 18.89° C | 84% | 1023.4 hPa | 0 mm | - | 0 W/m² | - |
| 1777711714 | 18.89° C | 84% | 1023.7 hPa | 0 mm | - | 0 W/m² | - |
| 1777711410 | 18.89° C | 82% | 1023.7 hPa | 0 mm | - | 0 W/m² | - |
| 1777711106 | 19.44° C | 83% | 1023.4 hPa | 0 mm | - | 0 W/m² | - |
| 1777710803 | 19.44° C | 82% | 1023.4 hPa | 0 mm | - | 0 W/m² | - |
| 1777710500 | 18.89° C | 85% | 1023.7 hPa | 0 mm | - | 0 W/m² | - |
| 1777710197 | 18.89° C | 85% | 1023.7 hPa | 0 mm | - | 0 W/m² | - |
| 1777709895 | 18.89° C | 86% | 1023.4 hPa | 0 mm | - | 0 W/m² | - |
| 1777709592 | 18.89° C | 87% | 1023.4 hPa | 0 mm | - | 0 W/m² | - |
* Rain latest hour (hover to see other rain measurements)
** Current wind speed in m/s (hover to see current wind gust speed)